Location: Cabo di Oristano
(39.8500°N, 8.4333°E)
Time: 16:21:42
(UTC+00:00)

ATLAS 3B R/B - Pass Details

Date: 31 January 2023
Orbit: 961 x 1233 km, 63.8° (Epoch: 29 March)

Event Time Altitude Azimuth Distance (km) Brightness Sun altitude
Exits shadow 04:56:44 21° 317° (NW) 2,251 4.0 -19.2°
Maximum altitude 04:57:35 21° 327° (NNW) 2,239 4.0 -19.0°
Drops below altitude 10° 05:02:55 10° 14° (NNE) 3,046 5.2 -18.0°
Sets 05:06:32 0° 30° (NNE) 4,057 6.0 -17.3°
